TimeMDT,TemperatureF,Dew PointF,Humidity,Sea Level PressureIn,VisibilityMPH,Wind Direction,Wind SpeedMPH,Gust SpeedMPH,PrecipitationIn,Events,Conditions,WindDirDegrees,DateUTC
12:16 AM,30.2,21.2,69,30.32,10.0,Calm,Calm,-,N/A,,Clear,0,2013-10-25 06:16:00
12:36 AM,28.4,21.2,74,30.32,10.0,Calm,Calm,-,N/A,,Clear,0,2013-10-25 06:36:00
12:55 AM,24.8,17.6,74,30.33,10.0,Calm,Calm,-,N/A,,Clear,0,2013-10-25 06:55:00
1:16 AM,28.4,21.2,74,30.33,10.0,Calm,Calm,-,N/A,,Clear,0,2013-10-25 07:16:00
1:36 AM,28.4,21.2,74,30.34,10.0,Calm,Calm,-,N/A,,Clear,0,2013-10-25 07:36:00
1:56 AM,24.8,19.4,80,30.34,10.0,Calm,Calm,-,N/A,,Clear,0,2013-10-25 07:56:00
2:16 AM,23.0,17.6,80,30.35,10.0,Calm,Calm,-,N/A,,Clear,0,2013-10-25 08:16:00
2:35 AM,24.8,19.4,80,30.35,10.0,Calm,Calm,-,N/A,,Clear,0,2013-10-25 08:35:00
2:56 AM,24.8,19.4,80,30.36,10.0,Calm,Calm,-,N/A,,Clear,0,2013-10-25 08:56:00
3:16 AM,23.0,17.6,80,30.36,10.0,Calm,Calm,-,N/A,,Clear,0,2013-10-25 09:16:00
3:36 AM,23.0,17.6,80,30.36,10.0,Calm,Calm,-,N/A,,Clear,0,2013-10-25 09:36:00
3:56 AM,23.0,17.6,80,30.36,10.0,Calm,Calm,-,N/A,,Clear,0,2013-10-25 09:56:00
4:15 AM,23.0,17.6,80,30.36,10.0,Calm,Calm,-,N/A,,Clear,0,2013-10-25 10:15:00
4:36 AM,23.0,19.4,86,30.36,10.0,Calm,Calm,-,N/A,,Clear,0,2013-10-25 10:36:00
4:56 AM,21.2,17.6,86,30.37,10.0,Calm,Calm,-,N/A,,Clear,0,2013-10-25 10:56:00
5:16 AM,21.2,17.6,86,30.37,10.0,Calm,Calm,-,N/A,,Clear,0,2013-10-25 11:16:00
5:36 AM,21.2,17.6,86,30.37,10.0,Calm,Calm,-,N/A,,Clear,0,2013-10-25 11:36:00
5:56 AM,21.2,17.6,86,30.37,10.0,Calm,Calm,-,N/A,,Clear,0,2013-10-25 11:56:00
6:16 AM,21.2,17.6,86,30.37,10.0,Calm,Calm,-,N/A,,Clear,0,2013-10-25 12:16:00
6:36 AM,19.4,15.8,86,30.38,10.0,Calm,Calm,-,N/A,,Clear,0,2013-10-25 12:36:00
6:56 AM,19.4,17.6,93,30.38,10.0,Calm,Calm,-,N/A,,Clear,0,2013-10-25 12:56:00
7:16 AM,19.4,15.8,86,30.38,10.0,Calm,Calm,-,N/A,,Clear,0,2013-10-25 13:16:00
7:36 AM,19.4,15.8,86,30.38,7.0,Calm,Calm,-,N/A,,Clear,0,2013-10-25 13:36:00
7:56 AM,19.4,15.8,86,30.39,10.0,Calm,Calm,-,N/A,,Clear,0,2013-10-25 13:56:00
8:16 AM,23.0,17.6,80,30.39,10.0,Calm,Calm,-,N/A,,Clear,0,2013-10-25 14:16:00
8:36 AM,24.8,19.4,80,30.39,10.0,Calm,Calm,-,N/A,,Clear,0,2013-10-25 14:36:00
8:55 AM,28.4,21.2,74,30.39,10.0,Calm,Calm,-,N/A,,Clear,0,2013-10-25 14:55:00
9:15 AM,30.2,23.0,75,30.39,10.0,Calm,Calm,-,N/A,,Clear,0,2013-10-25 15:15:00
9:35 AM,30.2,23.0,75,30.39,10.0,Calm,Calm,-,N/A,,Clear,0,2013-10-25 15:35:00
9:56 AM,33.8,23.0,65,30.39,10.0,Calm,Calm,-,N/A,,Clear,0,2013-10-25 15:56:00
10:16 AM,33.8,23.0,65,30.38,10.0,Calm,Calm,-,N/A,,Clear,0,2013-10-25 16:16:00
10:36 AM,37.4,23.0,56,30.37,10.0,Calm,Calm,-,N/A,,Clear,0,2013-10-25 16:36:00
10:56 AM,41.0,21.2,45,30.36,10.0,Calm,Calm,-,N/A,,Clear,0,2013-10-25 16:56:00
11:16 AM,42.8,21.2,42,30.35,10.0,Calm,Calm,-,N/A,,Clear,0,2013-10-25 17:16:00
11:36 AM,46.4,23.0,40,30.34,10.0,Calm,Calm,-,N/A,,Clear,0,2013-10-25 17:36:00
11:56 AM,50.0,21.2,32,30.33,10.0,Calm,Calm,-,N/A,,Clear,0,2013-10-25 17:56:00
12:16 PM,50.0,21.2,32,30.32,10.0,Calm,Calm,-,N/A,,Clear,0,2013-10-25 18:16:00
12:35 PM,51.8,19.4,28,30.31,10.0,Calm,Calm,-,N/A,,Clear,0,2013-10-25 18:35:00
12:56 PM,53.6,19.4,26,30.29,10.0,Calm,Calm,-,N/A,,Clear,0,2013-10-25 18:56:00
1:16 PM,53.6,19.4,26,30.28,10.0,Calm,Calm,-,N/A,,Clear,0,2013-10-25 19:16:00
1:36 PM,55.4,19.4,25,30.26,10.0,North,3.5,-,N/A,,Clear,350,2013-10-25 19:36:00
1:56 PM,55.4,17.6,23,30.25,10.0,Calm,Calm,-,N/A,,Clear,0,2013-10-25 19:56:00
2:16 PM,59.0,17.6,20,30.24,10.0,Calm,Calm,-,N/A,,Clear,0,2013-10-25 20:16:00
2:36 PM,60.8,17.6,19,30.24,10.0,NE,3.5,-,N/A,,Clear,50,2013-10-25 20:36:00
2:56 PM,60.8,17.6,19,30.24,10.0,WNW,6.9,-,N/A,,Clear,290,2013-10-25 20:56:00
3:16 PM,60.8,17.6,19,30.23,10.0,Calm,Calm,-,N/A,,Clear,0,2013-10-25 21:16:00
3:36 PM,60.8,15.8,17,30.23,10.0,NNW,9.2,-,N/A,,Clear,330,2013-10-25 21:36:00
3:56 PM,60.8,14.0,16,30.22,10.0,NW,8.1,-,N/A,,Clear,310,2013-10-25 21:56:00
4:16 PM,60.8,14.0,16,30.23,10.0,NW,9.2,16.1,N/A,,Scattered Clouds,320,2013-10-25 22:16:00
4:36 PM,60.8,12.2,15,30.23,10.0,NW,10.4,-,N/A,,Overcast,310,2013-10-25 22:36:00
4:56 PM,59.0,14.0,17,30.24,10.0,NW,9.2,-,N/A,,Overcast,310,2013-10-25 22:56:00
5:16 PM,55.4,14.0,20,30.24,10.0,NW,9.2,-,N/A,,Mostly Cloudy,310,2013-10-25 23:16:00
5:36 PM,55.4,14.0,20,30.24,10.0,WNW,5.8,-,N/A,,Overcast,300,2013-10-25 23:36:00
5:56 PM,55.4,14.0,20,30.24,10.0,WNW,5.8,-,N/A,,Overcast,300,2013-10-25 23:56:00
6:16 PM,51.8,17.6,26,30.25,10.0,East,3.5,-,N/A,,Overcast,90,2013-10-26 00:16:00
6:36 PM,51.8,15.8,24,30.26,10.0,NNW,4.6,-,N/A,,Mostly Cloudy,330,2013-10-26 00:36:00
6:55 PM,51.8,17.6,26,30.27,10.0,NW,3.5,-,N/A,,Overcast,320,2013-10-26 00:55:00
7:15 PM,51.8,19.4,28,30.28,10.0,NNW,4.6,-,N/A,,Scattered Clouds,340,2013-10-26 01:15:00
7:36 PM,51.8,19.4,28,30.28,10.0,NNW,8.1,-,N/A,,Scattered Clouds,330,2013-10-26 01:36:00
7:56 PM,50.0,19.4,30,30.29,10.0,NW,5.8,-,N/A,,Clear,310,2013-10-26 01:56:00
8:16 PM,50.0,19.4,30,30.30,10.0,WNW,5.8,-,N/A,,Clear,290,2013-10-26 02:16:00
8:36 PM,50.0,21.2,32,30.31,10.0,Calm,Calm,-,N/A,,Clear,0,2013-10-26 02:36:00
8:56 PM,50.0,21.2,32,30.31,10.0,NNW,6.9,-,N/A,,Clear,330,2013-10-26 02:56:00
9:16 PM,44.6,21.2,39,30.32,10.0,ESE,5.8,-,N/A,,Clear,110,2013-10-26 03:16:00
9:36 PM,39.2,23.0,52,30.32,10.0,Calm,Calm,-,N/A,,Clear,0,2013-10-26 03:36:00
9:56 PM,41.0,23.0,49,30.33,10.0,WSW,3.5,-,N/A,,Clear,250,2013-10-26 03:56:00
10:16 PM,39.2,23.0,52,30.34,10.0,Calm,Calm,-,N/A,,Clear,0,2013-10-26 04:16:00
10:36 PM,37.4,26.6,65,30.34,10.0,Calm,Calm,-,N/A,,Clear,0,2013-10-26 04:36:00
10:56 PM,33.8,23.0,65,30.34,10.0,ESE,5.8,-,N/A,,Clear,110,2013-10-26 04:56:00
11:16 PM,33.8,23.0,65,30.34,10.0,NE,3.5,-,N/A,,Clear,50,2013-10-26 05:16:00
11:36 PM,33.8,23.0,65,30.34,10.0,Calm,Calm,-,N/A,,Clear,0,2013-10-26 05:36:00
11:56 PM,33.8,23.0,65,30.35,10.0,Calm,Calm,-,N/A,,Clear,0,2013-10-26 05:56:00